Weather History for Evansville, IN

Change the Weather History Date:

Monday, July 8, 2013

  Actual Average Record
Temperature  
Mean Temperature 80 °F 78 °F  
Max Temperature 90 °F 89 °F 103 °F (1936)
Min Temperature 69 °F 68 °F 53 °F (1983)
Degree Days  
Heating Degree Days 0 0  
Month to date heating degree days 0 0  
Since 1 June heating degree days 1 6  
Since 1 July heating degree days 0 0  
Cooling Degree Days 15 13  
Month to date cooling degree days 70 104  
Year to date cooling degree days 537 537  
Since 1 June cooling degree days 366 402  
Growing Degree Days 30 (Base 50)    
Moisture  
Dew Point 70 °F    
Average Humidity 75    
Maximum Humidity 97    
Minimum Humidity 52    
Precipitation  
Precipitation 0.00 in 0.14 in 1.76 in (1994)
Month to date precipitation 0.35 1.05  
Year to date precipitation 30.45 25.07  
Snow  
Snow 0.00 in 0.00 in - ()
Month to date snowfall 0.0 0.0  
Since 1 June snowfall 0.0 0.0  
Since 1 July snowfall 0.0 0.0  
Snow Depth 0.00 in    
Sea Level Pressure  
Sea Level Pressure 30.10 in    
Wind  
Wind Speed 5 mph (SW)    
Max Wind Speed 14 mph    
Max Gust Speed 17 mph    
Visibility 10 miles    
Events      
T = Trace of Precipitation, MM = Missing Value Source: NWS Daily Summary

Daily Weather History Graph

Daily Weather History Graph

Search for Another Location

Airport:

Trip Planner

Search our weather history database for the weather conditions in past years. The results will help you decide how hot, cold, wet, or windy it might be!

Date:

Astronomy

Jul. 08, 2013 Rise Set
Actual Time 5:34 AM CDT 8:15 PM CDT
Civil Twilight 5:03 AM CDT 8:46 PM CDT
Nautical Twilight 4:25 AM CDT 9:24 PM CDT
Astronomical Twilight 3:41 AM CDT 10:08 PM CDT
Moon 6:02 AM CDT (7/8) 8:19 PM CDT (7/8)
Length of Visible Light 15h 42m
Length of Day
14h 40m
New Moon, 0% of the Moon is Illuminated
Jul 8
New Moon
Jul 15
First Quarter
Jul 22
Full
Jul 29
Last Quarter
Aug 6
New

Hourly Weather History & Observations

Time (CDT) Temp. Heat Index Dew Point Humidity Pressure Visibility Wind Dir Wind Speed Gust Speed Precip Events Conditions
12:54 AM 73.9 °F - 68.0 °F 82% 30.09 in 10.0 mi Calm Calm - N/A   Clear
1:54 AM 72.0 °F - 69.1 °F 91% 30.09 in 10.0 mi Calm Calm - N/A   Clear
2:54 AM 71.1 °F - 68.0 °F 90% 30.09 in 7.0 mi Calm Calm - N/A   Clear
3:54 AM 70.0 °F - 68.0 °F 93% 30.09 in 6.0 mi Calm Calm - N/A   Clear
4:54 AM 71.1 °F - 68.0 °F 90% 30.09 in 9.0 mi Calm Calm - N/A   Clear
5:54 AM 71.1 °F - 68.0 °F 90% 30.09 in 9.0 mi Calm Calm - N/A   Clear
6:54 AM 73.0 °F - 69.1 °F 87% 30.12 in 10.0 mi Calm Calm - N/A   Clear
7:54 AM 78.1 °F - 71.1 °F 79% 30.13 in 10.0 mi SW 5.8 mph - N/A   Clear
8:54 AM 81.0 °F 85.2 °F 72.0 °F 74% 30.13 in 10.0 mi SW 6.9 mph - N/A   Clear
9:54 AM 82.9 °F 88.0 °F 72.0 °F 69% 30.14 in 10.0 mi SSW 8.1 mph - N/A   Clear
10:54 AM 84.9 °F 90.1 °F 71.1 °F 63% 30.14 in 10.0 mi WSW 8.1 mph - N/A   Clear
11:54 AM 86.0 °F 90.1 °F 69.1 °F 57% 30.14 in 10.0 mi West 5.8 mph - N/A   Clear
12:54 PM 89.1 °F 95.0 °F 71.1 °F 55% 30.12 in 10.0 mi SW 10.4 mph 16.1 mph N/A   Mostly Cloudy
1:54 PM 89.1 °F 95.0 °F 71.1 °F 55% 30.11 in 10.0 mi South 8.1 mph - N/A   Partly Cloudy
2:54 PM 89.1 °F 95.0 °F 71.1 °F 55% 30.10 in 10.0 mi WSW 9.2 mph - N/A   Partly Cloudy
3:54 PM 89.1 °F 93.7 °F 69.1 °F 52% 30.08 in 10.0 mi SW 10.4 mph - N/A   Clear
4:54 PM 86.0 °F 90.1 °F 69.1 °F 57% 30.06 in 10.0 mi South 9.2 mph - N/A   Clear
5:54 PM 87.1 °F 92.8 °F 71.1 °F 59% 30.05 in 10.0 mi SSW 5.8 mph - N/A   Clear
6:54 PM 84.9 °F 90.7 °F 72.0 °F 65% 30.06 in 10.0 mi SW 6.9 mph - N/A   Clear
7:54 PM 82.0 °F 86.3 °F 71.1 °F 69% 30.06 in 10.0 mi SW 4.6 mph - N/A   Clear
8:54 PM 82.0 °F 85.9 °F 70.0 °F 67% 30.06 in 10.0 mi Calm Calm - N/A   Clear
9:54 PM 79.0 °F - 71.1 °F 77% 30.08 in 10.0 mi Calm Calm - N/A   Clear
10:54 PM 78.1 °F - 71.1 °F 79% 30.08 in 10.0 mi Calm Calm - N/A   Clear
11:54 PM 78.1 °F - 71.1 °F 79% 30.09 in 10.0 mi South 4.6 mph - N/A   Clear